Flag for Switzerland Weather past 2 weeks in Meilen, Zurich, Switzerland

Now
37 °F

Chilly.


Feels Like: 26 °F
Forecast: 32 / 38 °F
Wind: 20 mph from Southwest

Location: Zurich Town / Ville.

Current Time: Jan 29, 2015 at 2:16:26 AM

Latest Report: Jan 29, 2015 at 1:00 AM


Visibility: N/A

Pressure: 29.67 "Hg

Humidity: 80%

Dew point: 31 °F

Location of MeilenLocation

Historic Weather in Meilen — Graph

°F

Meilen temperature yesterday

Maximum temperature yesterday: 36 °F (at 9:00 PM)
Minimum temperature yesterday: 29 °F (at 8:00 AM)
Average temperature yesterday: 33 °F

Past Weeks' High & Low Weather Summary

 TemperatureHumidityPressure
High50 °F (Jan 14, 2:00 AM)100% (Jan 17, 8:00 AM)30.47 "Hg (Jan 17, 8:00 AM)
Low26 °F (Jan 26, 7:00 AM)49% (Jan 14, 1:00 AM)29.70 "Hg (Jan 16, 4:00 PM)
Average34 °F87%30.07 "Hg
* Reported Midnight between Jan 13 and Jan 14 — Midnight between Jan 28 and Jan 29, Meilen, Weather by CustomWeather, © 2014

Note: Actual official high and low records may vary slightly from our data, if they occured in-between our weather recording intervals... More about our weather records

Advertising

Meilen weather history for previous 24 hours

 ConditionsComfort  
Time TempWeatherWind HumidityBarometerVisibility
12:00 AM
Jan 29
35 °FChilly.17 mph83%29.70 "HgN/A
11:00 PM
Jan 28
36 °FChilly.15 mph74%29.73 "HgN/A
10:00 PM36 °FChilly.14 mph71%29.76 "HgN/A
9:00 PM36 °FChilly.18 mph66%29.80 "HgN/A
8:00 PM35 °FChilly.15 mph69%29.85 "HgN/A
7:00 PM35 °FChilly.16 mph70%29.90 "HgN/A
6:00 PM34 °FChilly.13 mph73%29.96 "HgN/A
5:00 PM34 °FChilly.9 mph70%29.97 "HgN/A
4:00 PM35 °FChilly.8 mph67%29.98 "HgN/A
3:00 PM35 °FChilly.10 mph67%30.04 "HgN/A
2:00 PM35 °FChilly.10 mph66%30.08 "HgN/A
1:00 PM35 °FOvercast.8 mph67%30.12 "HgN/A
12:00 PM34 °FChilly.8 mph73%30.16 "HgN/A
11:00 AM33 °FChilly.7 mph79%30.19 "HgN/A
10:00 AM31 °FChilly.5 mph89%30.21 "HgN/A
9:00 AM29 °FChilly.3 mph93%30.23 "HgN/A
8:00 AM29 °FChilly.1 mph95%30.24 "HgN/A
7:00 AM29 °FChilly.2 mph92%30.24 "HgN/A
6:00 AM29 °FChilly.2 mph92%30.24 "HgN/A
5:00 AM30 °FChilly.1 mph89%30.25 "HgN/A
4:00 AM31 °FChilly.5 mph86%30.26 "HgN/A
3:00 AM32 °FChilly.3 mph86%30.29 "HgN/A
2:00 AM32 °FChilly.6 mph84%30.29 "HgN/A
Weather by CustomWeather, © 2014

See weather overviewHow to use our weather pages